Location: Recife
(8.0585°S, 34.8848°W)
Time: 12:13:54
(UTC-03:00)

Injun/Solrad 3 - Pass Details

Date: 21 April 2026
Orbit: 868 x 988 km, 66.8° (Epoch: 12 May)

Event Time Altitude Azimuth Distance (km) Brightness Sun altitude
Rises 07:18:30 0° 333° (NNW) 3,679 10.9 27.1°
Reaches altitude 10° 07:21:06 10° 329° (NNW) 2,731 10.3 27.8°
Maximum altitude 07:27:25 61° 250° (WSW) 1,097 8.4 29.2°
Drops below altitude 10° 07:33:39 10° 170° (S) 2,696 10.3 30.7°
Sets 07:36:13 0° 166° (SSE) 3,629 10.9 31.3°
